Tracking 28920 objects as of 26-May-2024
HD Live streaming from Space Station
objects crossing your sky now

STARLINK-1688

Track STARLINK-1688 now!
10-day predictions
STARLINK-1688 is classified as:


NORAD ID: 46371
Int'l Code: 2020-062AY
Perigee: 369.6 km
Apogee: 374.7 km
Inclination: 53.1 °
Period: 91.8 minutes
Semi major axis: 6743 km
RCS: Unknown
Launch date: September 3, 2020
Source: United States (US)
Launch site: AIR FORCE EASTERN TEST RANGE (AFETR)
Your satellite tracking list
Your tracking list is empty




NASA's NSSDC Master Catalog

Two Line Element Set (TLE):
1 46371U 20062AY  24147.66668981  .00157658  00000-0  13827-2 0  9994
2 46371  53.0506  30.8498 0003774 221.6327 331.3730 15.67852153  5837
Source of the keplerian elements: AFSPC